N869KN TKPK-TAPA

Flight info

Callsign N869KN
Flight time 0h 16m
Altitude 5000
Route DCT
Aircraft EC45/L-SDE2E3FGHRWXYZ/L

Departure

Time 2026-04-22 23:55
Airport Robert L. Bradshaw International Airport (TKPK)

Arrival

Time 2026-04-23 00:11
Airport V. C. Bird International Airport (TAPA)
Time Latitude Longitude Altitude Speed Heading
2026-04-22 23:54 17.25197 -62.39470 4984 ft 120 kts 101°
2026-04-22 23:55 17.25033 -62.38614 4981 ft 120 kts 102°
2026-04-22 23:55 17.24869 -62.37759 4985 ft 119 kts 99°
2026-04-22 23:55 17.24706 -62.36909 4982 ft 119 kts 102°
2026-04-22 23:55 17.24543 -62.36057 4984 ft 120 kts 102°
2026-04-22 23:56 17.24441 -62.35523 4989 ft 120 kts 99°
2026-04-22 23:56 17.24277 -62.34670 4986 ft 120 kts 101°
2026-04-22 23:56 17.24112 -62.33808 4985 ft 121 kts 102°
2026-04-22 23:56 17.23947 -62.32948 4989 ft 119 kts 102°
2026-04-22 23:57 17.23784 -62.32097 4987 ft 119 kts 101°
2026-04-22 23:57 17.23621 -62.31247 4989 ft 119 kts 99°
2026-04-22 23:57 17.23457 -62.30396 4990 ft 120 kts 102°
2026-04-22 23:57 17.23292 -62.29533 4988 ft 121 kts 101°
2026-04-22 23:58 17.23127 -62.28675 4989 ft 121 kts 102°
2026-04-22 23:58 17.22963 -62.27818 4997 ft 121 kts 100°
2026-04-22 23:58 17.22798 -62.26959 4993 ft 119 kts 102°
2026-04-22 23:58 17.22633 -62.26103 4997 ft 120 kts 99°
2026-04-22 23:59 17.22469 -62.25248 4995 ft 120 kts 101°
2026-04-22 23:59 17.22306 -62.24399 4996 ft 119 kts 102°
2026-04-22 23:59 17.22143 -62.23548 4999 ft 119 kts 101°
2026-04-22 23:59 17.21978 -62.22690 4997 ft 121 kts 101°
2026-04-23 00:00 17.21642 -62.20945 5002 ft 123 kts 102°
2026-04-23 00:00 17.21472 -62.20065 5004 ft 123 kts 100°
2026-04-23 00:00 17.21304 -62.19189 5002 ft 122 kts 100°
2026-04-23 00:01 17.21135 -62.18316 4999 ft 123 kts 102°
2026-04-23 00:01 17.20966 -62.17435 5001 ft 124 kts 102°
2026-04-23 00:01 17.20796 -62.16551 5007 ft 123 kts 101°
2026-04-23 00:01 17.20628 -62.15682 5004 ft 124 kts 101°
2026-04-23 00:02 17.20458 -62.14795 5006 ft 125 kts 102°
2026-04-23 00:02 17.20287 -62.13911 5005 ft 123 kts 101°
2026-04-23 00:02 17.20118 -62.13033 5004 ft 123 kts 101°
2026-04-23 00:02 17.19947 -62.12150 5007 ft 124 kts 101°
2026-04-23 00:03 17.19777 -62.11263 5008 ft 124 kts 102°
2026-04-23 00:03 17.19606 -62.10378 5005 ft 125 kts 102°
2026-04-23 00:03 17.19433 -62.09487 5004 ft 124 kts 100°
2026-04-23 00:03 17.19264 -62.08607 4998 ft 123 kts 102°
2026-04-23 00:04 17.19097 -62.07740 4997 ft 124 kts 102°
2026-04-23 00:04 17.18925 -62.06856 5001 ft 124 kts 101°
2026-04-23 00:04 17.18755 -62.05970 5007 ft 123 kts 95°
2026-04-23 00:04 17.18599 -62.05111 4998 ft 119 kts 95°
2026-04-23 00:05 17.18442 -62.04247 4908 ft 121 kts 95°
2026-04-23 00:05 17.18288 -62.03386 4757 ft 120 kts 102°
2026-04-23 00:05 17.18116 -62.02533 4605 ft 119 kts 102°
2026-04-23 00:05 17.17950 -62.01688 4450 ft 118 kts 99°
2026-04-23 00:06 17.17790 -62.00856 4297 ft 116 kts 100°
2026-04-23 00:06 17.17630 -62.00030 4145 ft 116 kts 101°
2026-04-23 00:06 17.17471 -61.99205 3997 ft 115 kts 102°
2026-04-23 00:06 17.17313 -61.98390 3849 ft 113 kts 101°
2026-04-23 00:07 17.17159 -61.97593 3705 ft 113 kts 100°
2026-04-23 00:07 17.17003 -61.96790 3561 ft 112 kts 101°
2026-04-23 00:07 17.16849 -61.95993 3417 ft 112 kts 99°
2026-04-23 00:07 17.16744 -61.95459 3322 ft 111 kts 102°
2026-04-23 00:08 17.16529 -61.94373 3120 ft 117 kts 102°
2026-04-23 00:08 17.16370 -61.93550 2972 ft 115 kts 102°
2026-04-23 00:08 17.16209 -61.92728 2820 ft 115 kts 104°
2026-04-23 00:08 17.16051 -61.91911 2665 ft 114 kts 102°
2026-04-23 00:09 17.15896 -61.91096 2513 ft 114 kts 101°
2026-04-23 00:09 17.15741 -61.90281 2361 ft 116 kts 101°
2026-04-23 00:09 17.15582 -61.89457 2213 ft 115 kts 101°
2026-04-23 00:09 17.15422 -61.88635 2062 ft 115 kts 101°
2026-04-23 00:10 17.15269 -61.87844 1937 ft 104 kts 100°
2026-04-23 00:10 17.15137 -61.87165 1812 ft 90 kts 100°
2026-04-23 00:10 17.15020 -61.86563 1636 ft 79 kts 99°
2026-04-23 00:10 17.14916 -61.86027 1473 ft 70 kts 101°
2026-04-23 00:11 17.14825 -61.85559 1332 ft 63 kts 101°
2026-04-23 00:11 17.14742 -61.85131 1210 ft 57 kts 100°
2026-04-23 00:11 17.14668 -61.84749 1123 ft 50 kts 102°
2026-04-23 00:11 17.14606 -61.84429 1057 ft 45 kts 103°
2026-04-23 00:12 17.14540 -61.84095 993 ft 52 kts 103°
2026-04-23 00:12 17.14456 -61.83660 923 ft 62 kts 102°
2026-04-23 00:12 17.14373 -61.83231 853 ft 59 kts 104°
2026-04-23 00:12 17.14289 -61.82798 777 ft 62 kts 104°
2026-04-23 00:13 17.14206 -61.82375 702 ft 57 kts 101°
2026-04-23 00:13 17.14131 -61.81991 630 ft 51 kts 100°
2026-04-23 00:13 17.14063 -61.81638 564 ft 49 kts 100°
2026-04-23 00:13 17.13994 -61.81282 491 ft 50 kts 99°
2026-04-23 00:14 17.13927 -61.80949 432 ft 43 kts 102°
2026-04-23 00:14 17.13877 -61.80691 440 ft 27 kts 102°
2026-04-23 00:14 17.13854 -61.80533 428 ft 19 kts 101°
2026-04-23 00:14 17.13837 -61.80415 463 ft 14 kts 102°
2026-04-23 00:15 17.13805 -61.80261 425 ft 31 kts 104°
2026-04-23 00:15 17.13742 -61.79997 426 ft 44 kts 107°
2026-04-23 00:15 17.13638 -61.79647 418 ft 57 kts 109°
2026-04-23 00:15 17.13667 -61.79258 269 ft 55 kts 68°
2026-04-23 00:16 17.13820 -61.79000 201 ft 32 kts 66°
2026-04-23 00:16 17.13914 -61.78857 207 ft 19 kts 63°
2026-04-23 00:16 17.13940 -61.78808 209 ft 3 kts 79°
2026-04-23 00:16 17.13955 -61.78779 209 ft 9 kts 83°
2026-04-23 00:17 17.13973 -61.78725 237 ft 12 kts 84°
2026-04-23 00:17 17.14015 -61.78556 320 ft 36 kts 84°
2026-04-23 00:17 17.14052 -61.78277 192 ft 35 kts 87°
2026-04-23 00:17 17.14047 -61.78120 174 ft 10 kts 95°
2026-04-23 00:18 17.14044 -61.78072 181 ft 5 kts 97°
2026-04-23 00:18 17.14044 -61.78020 142 ft 11 kts 99°
2026-04-23 00:18 17.14042 -61.77913 123 ft 12 kts 102°
2026-04-23 00:18 17.14041 -61.77888 93 ft 0 kts 96°
2026-04-23 00:19 17.14035 -61.77847 98 ft 10 kts 92°
2026-04-23 00:19 17.14033 -61.77748 68 ft 11 kts 97°
2026-04-23 00:19 17.14029 -61.77702 69 ft 7 kts 102°
2026-04-23 00:19 17.14021 -61.77656 62 ft 5 kts 98°
2026-04-23 00:20 17.14016 -61.77633 60 ft 5 kts 98°
2026-04-23 00:20 17.14008 -61.77573 57 ft 8 kts 59°
2026-04-23 00:20 17.14011 -61.77552 60 ft 3 kts 17°
2026-04-23 00:20 17.14014 -61.77547 54 ft 1 kts
2026-04-23 00:21 17.14020 -61.77539 47 ft 2 kts
2026-04-23 00:21 17.14020 -61.77534 33 ft 0 kts 351°
2026-04-23 00:21 17.14019 -61.77535 34 ft 1 kts
2026-04-23 00:21 17.14022 -61.77534 35 ft 0 kts
2026-04-23 00:22 17.14023 -61.77533 33 ft 0 kts
2026-04-23 00:34 17.14022 -61.77533 34 ft 0 kts